Location: Del Amo
(33.8464°N, 118.2104°W)
Time: 13:44:37
(UTC+00:00)

Cosmos 1939 Rocket - Visible Passes

Search period start: 14 September 2024 00:00
Search period end: 24 September 2024 00:00
Orbit: 511 x 552 km, 97.5° (Epoch: 13 September)

Date Brightness Start Highest point End Pass type
(mag) Time Alt. Az. Time Alt. Az. Time Alt. Az.
14 Sep 3.6 12:08:19 10° NNE 12:12:12 53° E 12:16:03 10° S visible
15 Sep 4.2 11:58:29 10° NNE 12:02:13 38° E 12:05:54 10° SSE visible
16 Sep 4.8 11:48:43 10° NE 11:52:11 28° E 11:55:37 10° SSE visible
17 Sep 5.3 11:39:01 10° NE 11:42:06 21° E 11:45:09 10° SSE visible
18 Sep 5.7 11:29:28 10° NE 11:31:59 16° E 11:34:28 10° SE visible
18 Sep 3.8 13:02:55 10° NNW 13:06:20 28° WNW 13:09:42 10° SW visible
19 Sep 5.9 11:20:15 10° ENE 11:21:48 12° E 11:23:20 10° ESE visible
19 Sep 3.4 12:52:36 10° N 12:56:17 37° WNW 12:59:55 10° SW visible
20 Sep 3.0 12:42:20 10° N 12:46:11 51° WNW 12:49:59 10° SSW visible
21 Sep 2.7 12:32:06 10° N 12:36:03 71° WNW 12:39:56 10° SSW visible
22 Sep 2.8 12:21:53 10° NNE 12:25:51 83° ESE 12:29:45 10° S visible
23 Sep 3.3 12:11:42 10° NNE 12:15:36 59° E 12:19:27 10° S visible
